Time,TemperatureF,DewpointF,PressureIn,WindDirection,WindDirectionDegrees,WindSpeedMPH,WindSpeedGustMPH,Humidity,HourlyPrecipIn,Conditions,Clouds,dailyrainin,SolarRadiationWatts/m^2,SoftwareType,DateUTC
2014-12-27 00:01:00,40.3,36.4,30.18,South,179,0.0,0.0,86,0.00,,,0.00,0,HR-IXPWINDi_r2_v1.2.,2014-12-27 05:01:00,
2014-12-27 00:06:00,40.1,36.2,30.18,South,179,0.0,0.0,86,0.00,,,0.00,0,HR-IXPWINDi_r2_v1.2.,2014-12-27 05:06:00,
2014-12-27 00:12:00,39.7,35.8,30.18,South,179,0.0,0.0,86,0.00,,,0.00,0,HR-IXPWINDi_r2_v1.2.,2014-12-27 05:12:00,
2014-12-27 00:17:00,39.3,35.7,30.18,South,179,0.0,0.0,87,0.00,,,0.00,0,HR-IXPWINDi_r2_v1.2.,2014-12-27 05:17:00,
2014-12-27 00:22:00,39.2,35.9,30.18,South,179,0.0,1.0,88,0.00,,,0.00,0,HR-IXPWINDi_r2_v1.2.,2014-12-27 05:22:00,
2014-12-27 00:27:00,39.3,36.0,30.18,South,179,0.0,1.0,88,0.00,,,0.00,0,HR-IXPWINDi_r2_v1.2.,2014-12-27 05:27:00,
2014-12-27 00:32:00,39.8,36.2,30.18,South,179,2.0,3.0,87,0.00,,,0.00,0,HR-IXPWINDi_r2_v1.2.,2014-12-27 05:32:00,
2014-12-27 00:37:00,40.2,36.3,30.17,South,179,2.0,3.0,86,0.00,,,0.00,0,HR-IXPWINDi_r2_v1.2.,2014-12-27 05:37:00,
2014-12-27 00:42:00,40.3,36.1,30.18,South,179,1.0,2.0,85,0.00,,,0.00,0,HR-IXPWINDi_r2_v1.2.,2014-12-27 05:42:00,
2014-12-27 00:47:00,40.0,35.5,30.17,South,179,0.0,2.0,84,0.00,,,0.00,0,HR-IXPWINDi_r2_v1.2.,2014-12-27 05:47:00,
2014-12-27 00:52:00,39.7,35.5,30.17,South,179,0.0,1.0,85,0.00,,,0.00,0,HR-IXPWINDi_r2_v1.2.,2014-12-27 05:52:00,
2014-12-27 00:58:00,39.5,35.3,30.17,South,179,0.0,0.0,85,0.00,,,0.00,0,HR-IXPWINDi_r2_v1.2.,2014-12-27 05:58:00,
2014-12-27 01:03:00,39.1,34.9,30.17,South,179,0.0,0.0,85,0.00,,,0.00,0,HR-IXPWINDi_r2_v1.2.,2014-12-27 06:03:00,
2014-12-27 01:08:00,39.0,35.1,30.17,South,179,0.0,0.0,86,0.00,,,0.00,0,HR-IXPWINDi_r2_v1.2.,2014-12-27 06:08:00,
2014-12-27 01:13:00,38.9,35.0,30.18,South,179,0.0,0.0,86,0.00,,,0.00,0,HR-IXPWINDi_r2_v1.2.,2014-12-27 06:13:00,
2014-12-27 01:18:00,39.1,35.5,30.18,South,179,0.0,0.0,87,0.00,,,0.00,0,HR-IXPWINDi_r2_v1.2.,2014-12-27 06:18:00,
2014-12-27 01:23:00,39.0,35.1,30.18,South,179,0.0,0.0,86,0.00,,,0.00,0,HR-IXPWINDi_r2_v1.2.,2014-12-27 06:23:00,
2014-12-27 01:28:00,38.7,34.8,30.18,South,179,0.0,0.0,86,0.00,,,0.00,0,HR-IXPWINDi_r2_v1.2.,2014-12-27 06:28:00,
2014-12-27 01:34:00,38.8,35.2,30.18,South,179,0.0,0.0,87,0.00,,,0.00,0,HR-IXPWINDi_r2_v1.2.,2014-12-27 06:34:00,
2014-12-27 01:39:00,39.1,35.5,30.18,South,179,0.0,0.0,87,0.00,,,0.00,0,HR-IXPWINDi_r2_v1.2.,2014-12-27 06:39:00,
2014-12-27 01:44:00,39.3,35.4,30.18,South,179,0.0,0.0,86,0.00,,,0.00,0,HR-IXPWINDi_r2_v1.2.,2014-12-27 06:44:00,
2014-12-27 01:49:00,39.2,35.3,30.18,South,180,2.0,3.0,86,0.00,,,0.00,0,HR-IXPWINDi_r2_v1.2.,2014-12-27 06:49:00,
2014-12-27 01:54:00,39.2,35.6,30.18,South,180,3.0,3.0,87,0.00,,,0.00,0,HR-IXPWINDi_r2_v1.2.,2014-12-27 06:54:00,
2014-12-27 01:59:00,39.5,35.9,30.17,South,179,3.0,4.0,87,0.00,,,0.00,0,HR-IXPWINDi_r2_v1.2.,2014-12-27 06:59:00,
2014-12-27 02:04:00,39.6,36.0,30.18,South,179,1.0,4.0,87,0.00,,,0.00,0,HR-IXPWINDi_r2_v1.2.,2014-12-27 07:04:00,
2014-12-27 02:09:00,39.5,35.9,30.18,South,179,2.0,3.0,87,0.00,,,0.00,0,HR-IXPWINDi_r2_v1.2.,2014-12-27 07:09:00,
2014-12-27 02:14:00,39.5,35.9,30.18,South,179,1.0,2.0,87,0.00,,,0.00,0,HR-IXPWINDi_r2_v1.2.,2014-12-27 07:14:00,
2014-12-27 02:19:00,39.6,36.0,30.18,South,179,2.0,2.0,87,0.00,,,0.00,0,HR-IXPWINDi_r2_v1.2.,2014-12-27 07:19:00,
2014-12-27 02:25:00,39.7,36.1,30.19,South,183,4.0,4.0,87,0.00,,,0.00,0,HR-IXPWINDi_r2_v1.2.,2014-12-27 07:25:00,
2014-12-27 02:30:00,39.8,36.5,30.19,South,186,2.0,4.0,88,0.00,,,0.00,0,HR-IXPWINDi_r2_v1.2.,2014-12-27 07:30:00,
2014-12-27 02:35:00,40.0,36.4,30.19,South,190,2.0,5.0,87,0.00,,,0.00,0,HR-IXPWINDi_r2_v1.2.,2014-12-27 07:35:00,
2014-12-27 02:40:00,40.8,36.9,30.19,SSW,200,5.0,6.0,86,0.00,,,0.00,0,HR-IXPWINDi_r2_v1.2.,2014-12-27 07:40:00,
2014-12-27 02:45:00,41.3,36.8,30.19,SSW,204,5.0,6.0,84,0.00,,,0.00,0,HR-IXPWINDi_r2_v1.2.,2014-12-27 07:45:00,
2014-12-27 02:50:00,41.4,36.9,30.19,SSW,204,3.0,6.0,84,0.00,,,0.00,0,HR-IXPWINDi_r2_v1.2.,2014-12-27 07:50:00,
2014-12-27 02:55:00,41.4,36.9,30.19,SSW,203,6.0,6.0,84,0.00,,,0.00,0,HR-IXPWINDi_r2_v1.2.,2014-12-27 07:55:00,
2014-12-27 03:00:00,41.4,36.9,30.19,SSW,203,5.0,6.0,84,0.00,,,0.00,0,HR-IXPWINDi_r2_v1.2.,2014-12-27 08:00:00,
2014-12-27 03:05:00,41.6,36.8,30.19,SSW,204,4.0,6.0,83,0.00,,,0.00,0,HR-IXPWINDi_r2_v1.2.,2014-12-27 08:05:00,
2014-12-27 03:10:00,41.9,37.1,30.20,SSW,205,5.0,7.0,83,0.00,,,0.00,0,HR-IXPWINDi_r2_v1.2.,2014-12-27 08:10:00,
2014-12-27 03:16:00,41.9,36.8,30.19,SSW,204,4.0,7.0,82,0.00,,,0.00,0,HR-IXPWINDi_r2_v1.2.,2014-12-27 08:16:00,
2014-12-27 03:21:00,41.9,37.1,30.19,SSW,202,4.0,7.0,83,0.00,,,0.00,0,HR-IXPWINDi_r2_v1.2.,2014-12-27 08:21:00,
2014-12-27 03:26:00,41.9,36.8,30.18,SSW,206,6.0,6.0,82,0.00,,,0.00,0,HR-IXPWINDi_r2_v1.2.,2014-12-27 08:26:00,
2014-12-27 03:31:00,42.0,36.9,30.18,SSW,202,3.0,7.0,82,0.00,,,0.00,0,HR-IXPWINDi_r2_v1.2.,2014-12-27 08:31:00,
2014-12-27 03:36:00,41.7,36.9,30.18,SSW,205,5.0,7.0,83,0.00,,,0.00,0,HR-IXPWINDi_r2_v1.2.,2014-12-27 08:36:00,
2014-12-27 03:42:00,41.5,36.4,30.18,SSW,213,7.0,7.0,82,0.00,,,0.00,0,HR-IXPWINDi_r2_v1.2.,2014-12-27 08:42:00,
2014-12-27 03:47:00,41.5,36.1,30.18,SSW,204,7.0,8.0,81,0.00,,,0.00,0,HR-IXPWINDi_r2_v1.2.,2014-12-27 08:47:00,
2014-12-27 03:52:00,41.5,36.1,30.18,SSW,203,7.0,9.0,81,0.00,,,0.00,0,HR-IXPWINDi_r2_v1.2.,2014-12-27 08:52:00,
2014-12-27 03:57:00,41.5,36.1,30.18,SSW,200,7.0,9.0,81,0.00,,,0.00,0,HR-IXPWINDi_r2_v1.2.,2014-12-27 08:57:00,
2014-12-27 04:02:00,41.4,36.3,30.17,SSW,195,7.0,10.0,82,0.00,,,0.00,0,HR-IXPWINDi_r2_v1.2.,2014-12-27 09:02:00,
2014-12-27 04:07:00,41.7,36.3,30.17,SSW,196,7.0,10.0,81,0.00,,,0.00,0,HR-IXPWINDi_r2_v1.2.,2014-12-27 09:07:00,
2014-12-27 04:13:00,41.7,36.3,30.17,SSW,197,8.0,10.0,81,0.00,,,0.00,0,HR-IXPWINDi_r2_v1.2.,2014-12-27 09:13:00,
2014-12-27 04:18:00,41.5,36.1,30.17,SSW,196,8.0,10.0,81,0.00,,,0.00,0,HR-IXPWINDi_r2_v1.2.,2014-12-27 09:18:00,
2014-12-27 04:23:00,41.5,36.4,30.17,SSW,194,9.0,10.0,82,0.00,,,0.00,0,HR-IXPWINDi_r2_v1.2.,2014-12-27 09:23:00,
2014-12-27 04:28:00,41.8,36.4,30.16,SSW,199,8.0,11.0,81,0.00,,,0.00,0,HR-IXPWINDi_r2_v1.2.,2014-12-27 09:28:00,
2014-12-27 04:33:00,42.1,36.3,30.17,SSW,207,8.0,12.0,80,0.00,,,0.00,0,HR-IXPWINDi_r2_v1.2.,2014-12-27 09:33:00,
2014-12-27 04:38:00,42.2,36.1,30.16,SSW,200,7.0,12.0,79,0.00,,,0.00,0,HR-IXPWINDi_r2_v1.2.,2014-12-27 09:38:00,
2014-12-27 04:43:00,42.0,36.2,30.16,SSW,198,7.0,9.0,80,0.00,,,0.00,0,HR-IXPWINDi_r2_v1.2.,2014-12-27 09:43:00,
2014-12-27 04:48:00,41.9,36.1,30.16,SSW,201,7.0,10.0,80,0.00,,,0.00,0,HR-IXPWINDi_r2_v1.2.,2014-12-27 09:48:00,
2014-12-27 04:53:00,42.1,36.0,30.16,SSW,207,7.0,11.0,79,0.00,,,0.00,0,HR-IXPWINDi_r2_v1.2.,2014-12-27 09:53:00,
2014-12-27 04:59:00,42.0,35.9,30.16,SSW,207,7.0,11.0,79,0.00,,,0.00,0,HR-IXPWINDi_r2_v1.2.,2014-12-27 09:59:00,
2014-12-27 05:04:00,41.8,35.7,30.16,SSW,212,7.0,10.0,79,0.00,,,0.00,0,HR-IXPWINDi_r2_v1.2.,2014-12-27 10:04:00,
2014-12-27 05:09:00,41.6,35.5,30.16,SSW,201,9.0,10.0,79,0.00,,,0.00,0,HR-IXPWINDi_r2_v1.2.,2014-12-27 10:09:00,
2014-12-27 05:14:00,41.4,35.7,30.16,SSW,206,9.0,12.0,80,0.00,,,0.00,0,HR-IXPWINDi_r2_v1.2.,2014-12-27 10:14:00,
2014-12-27 05:19:00,41.4,35.7,30.16,SSW,204,10.0,14.0,80,0.00,,,0.00,0,HR-IXPWINDi_r2_v1.2.,2014-12-27 10:19:00,
2014-12-27 05:25:00,41.4,35.7,30.16,SSW,211,8.0,14.0,80,0.00,,,0.00,0,HR-IXPWINDi_r2_v1.2.,2014-12-27 10:25:00,
2014-12-27 05:30:00,41.5,35.8,30.17,SSW,203,9.0,13.0,80,0.00,,,0.00,0,HR-IXPWINDi_r2_v1.2.,2014-12-27 10:30:00,
2014-12-27 05:35:00,41.8,36.0,30.17,SSW,213,8.0,13.0,80,0.00,,,0.00,0,HR-IXPWINDi_r2_v1.2.,2014-12-27 10:35:00,
2014-12-27 05:40:00,41.6,35.9,30.17,SSW,212,8.0,13.0,80,0.00,,,0.00,0,HR-IXPWINDi_r2_v1.2.,2014-12-27 10:40:00,
2014-12-27 05:45:00,41.7,35.9,30.17,SSW,202,8.0,12.0,80,0.00,,,0.00,0,HR-IXPWINDi_r2_v1.2.,2014-12-27 10:45:00,
2014-12-27 05:50:00,41.7,35.9,30.17,SSW,206,8.0,12.0,80,0.00,,,0.00,0,HR-IXPWINDi_r2_v1.2.,2014-12-27 10:50:00,
2014-12-27 05:55:00,41.5,35.8,30.17,SSW,211,8.0,11.0,80,0.00,,,0.00,0,HR-IXPWINDi_r2_v1.2.,2014-12-27 10:55:00,
2014-12-27 06:00:00,41.6,35.9,30.17,SSW,203,8.0,12.0,80,0.00,,,0.00,0,HR-IXPWINDi_r2_v1.2.,2014-12-27 11:00:00,
2014-12-27 06:06:00,41.7,35.9,30.17,SSW,207,10.0,14.0,80,0.00,,,0.00,0,HR-IXPWINDi_r2_v1.2.,2014-12-27 11:06:00,
2014-12-27 06:11:00,41.8,36.0,30.17,SSW,207,9.0,14.0,80,0.00,,,0.00,0,HR-IXPWINDi_r2_v1.2.,2014-12-27 11:11:00,
2014-12-27 06:16:00,41.8,36.0,30.16,SSW,204,8.0,13.0,80,0.00,,,0.00,0,HR-IXPWINDi_r2_v1.2.,2014-12-27 11:16:00,
2014-12-27 06:21:00,41.8,36.4,30.16,SSW,198,10.0,13.0,81,0.00,,,0.00,0,HR-IXPWINDi_r2_v1.2.,2014-12-27 11:21:00,
2014-12-27 06:26:00,41.9,36.1,30.16,SSW,207,10.0,13.0,80,0.00,,,0.00,0,HR-IXPWINDi_r2_v1.2.,2014-12-27 11:26:00,
2014-12-27 06:31:00,42.0,36.2,30.16,SSW,200,10.0,14.0,80,0.00,,,0.00,0,HR-IXPWINDi_r2_v1.2.,2014-12-27 11:31:00,
2014-12-27 06:36:00,42.1,36.3,30.17,SSW,197,11.0,14.0,80,0.00,,,0.00,0,HR-IXPWINDi_r2_v1.2.,2014-12-27 11:36:00,
2014-12-27 06:42:00,42.1,36.3,30.17,SSW,207,9.0,14.0,80,0.00,,,0.00,0,HR-IXPWINDi_r2_v1.2.,2014-12-27 11:42:00,
2014-12-27 06:47:00,42.3,36.2,30.17,SSW,204,10.0,14.0,79,0.00,,,0.00,0,HR-IXPWINDi_r2_v1.2.,2014-12-27 11:47:00,
2014-12-27 06:52:00,42.3,36.5,30.17,SW,220,9.0,14.0,80,0.00,,,0.00,0,HR-IXPWINDi_r2_v1.2.,2014-12-27 11:52:00,
2014-12-27 06:57:00,42.1,36.3,30.18,SSW,206,7.0,12.0,80,0.00,,,0.00,0,HR-IXPWINDi_r2_v1.2.,2014-12-27 11:57:00,
2014-12-27 07:02:00,41.9,36.5,30.18,SSW,208,9.0,11.0,81,0.00,,,0.00,0,HR-IXPWINDi_r2_v1.2.,2014-12-27 12:02:00,
2014-12-27 07:07:00,41.8,36.4,30.18,SW,223,7.0,12.0,81,0.00,,,0.00,0,HR-IXPWINDi_r2_v1.2.,2014-12-27 12:07:00,
2014-12-27 07:12:00,41.7,36.3,30.17,SSW,207,9.0,12.0,81,0.00,,,0.00,0,HR-IXPWINDi_r2_v1.2.,2014-12-27 12:12:00,
2014-12-27 07:17:00,41.5,36.1,30.18,SW,220,4.0,11.0,81,0.00,,,0.00,0,HR-IXPWINDi_r2_v1.2.,2014-12-27 12:17:00,
2014-12-27 07:22:00,41.2,35.8,30.18,SW,220,6.0,9.0,81,0.00,,,0.00,0,HR-IXPWINDi_r2_v1.2.,2014-12-27 12:22:00,
2014-12-27 07:27:00,41.0,35.9,30.18,SSW,213,5.0,8.0,82,0.00,,,0.00,0,HR-IXPWINDi_r2_v1.2.,2014-12-27 12:27:00,
2014-12-27 07:33:00,40.9,36.1,30.18,SW,221,4.0,8.0,83,0.00,,,0.00,0,HR-IXPWINDi_r2_v1.2.,2014-12-27 12:33:00,
2014-12-27 07:38:00,41.1,36.3,30.18,SW,221,5.0,8.0,83,0.00,,,0.00,0,HR-IXPWINDi_r2_v1.2.,2014-12-27 12:38:00,
2014-12-27 07:43:00,41.2,36.4,30.18,SW,216,4.0,8.0,83,0.00,,,0.00,0,HR-IXPWINDi_r2_v1.2.,2014-12-27 12:43:00,
2014-12-27 07:48:00,41.2,36.1,30.17,SSW,205,5.0,8.0,82,0.00,,,0.00,0,HR-IXPWINDi_r2_v1.2.,2014-12-27 12:48:00,
2014-12-27 07:53:00,41.1,36.0,30.17,SSW,205,5.0,7.0,82,0.00,,,0.00,0,HR-IXPWINDi_r2_v1.2.,2014-12-27 12:53:00,
2014-12-27 07:58:00,41.3,36.2,30.18,SSW,205,5.0,8.0,82,0.00,,,0.00,5,HR-IXPWINDi_r2_v1.2.,2014-12-27 12:58:00,
2014-12-27 08:03:00,41.5,36.4,30.18,SSW,205,5.0,8.0,82,0.00,,,0.00,9,HR-IXPWINDi_r2_v1.2.,2014-12-27 13:03:00,
2014-12-27 08:08:00,41.7,36.3,30.19,SSW,204,6.0,7.0,81,0.00,,,0.00,5,HR-IXPWINDi_r2_v1.2.,2014-12-27 13:08:00,
2014-12-27 08:13:00,41.7,36.6,30.19,SSW,206,7.0,10.0,82,0.00,,,0.00,9,HR-IXPWINDi_r2_v1.2.,2014-12-27 13:13:00,
2014-12-27 08:19:00,41.9,36.8,30.18,SSW,197,7.0,10.0,82,0.00,,,0.00,9,HR-IXPWINDi_r2_v1.2.,2014-12-27 13:19:00,
2014-12-27 08:24:00,42.1,36.7,30.18,SSW,196,9.0,11.0,81,0.00,,,0.00,7,HR-IXPWINDi_r2_v1.2.,2014-12-27 13:24:00,
2014-12-27 08:29:00,42.3,36.8,30.18,SSW,205,7.0,12.0,81,0.00,,,0.00,11,HR-IXPWINDi_r2_v1.2.,2014-12-27 13:29:00,
2014-12-27 08:34:00,42.4,36.9,30.19,SSW,212,8.0,12.0,81,0.00,,,0.00,18,HR-IXPWINDi_r2_v1.2.,2014-12-27 13:34:00,
2014-12-27 08:40:00,42.4,36.9,30.19,SSW,203,7.0,11.0,81,0.00,,,0.00,23,HR-IXPWINDi_r2_v1.2.,2014-12-27 13:40:00,
2014-12-27 08:45:00,42.3,37.2,30.19,SSW,207,7.0,11.0,82,0.00,,,0.00,21,HR-IXPWINDi_r2_v1.2.,2014-12-27 13:45:00,
2014-12-27 08:50:00,42.3,37.2,30.19,SSW,200,8.0,14.0,82,0.00,,,0.00,35,HR-IXPWINDi_r2_v1.2.,2014-12-27 13:50:00,
2014-12-27 08:55:00,42.4,37.6,30.18,SSW,200,9.0,14.0,83,0.00,,,0.00,33,HR-IXPWINDi_r2_v1.2.,2014-12-27 13:55:00,
2014-12-27 09:00:00,42.6,37.4,30.18,SSW,195,8.0,13.0,82,0.00,,,0.00,25,HR-IXPWINDi_r2_v1.2.,2014-12-27 14:00:00,
2014-12-27 09:05:00,42.8,37.6,30.18,SW,217,10.0,13.0,82,0.00,,,0.00,42,HR-IXPWINDi_r2_v1.2.,2014-12-27 14:05:00,
2014-12-27 09:10:00,42.9,37.7,30.18,SSW,204,9.0,13.0,82,0.00,,,0.00,69,HR-IXPWINDi_r2_v1.2.,2014-12-27 14:10:00,
2014-12-27 09:15:00,43.0,38.1,30.18,SSW,205,7.0,12.0,83,0.00,,,0.00,67,HR-IXPWINDi_r2_v1.2.,2014-12-27 14:15:00,
2014-12-27 09:20:00,43.1,38.2,30.18,SSW,204,8.0,12.0,83,0.00,,,0.00,67,HR-IXPWINDi_r2_v1.2.,2014-12-27 14:20:00,
2014-12-27 09:25:00,43.2,38.3,30.17,SSW,200,11.0,12.0,83,0.00,,,0.00,105,HR-IXPWINDi_r2_v1.2.,2014-12-27 14:25:00,
2014-12-27 09:30:00,43.5,38.6,30.17,SSW,198,9.0,12.0,83,0.00,,,0.00,56,HR-IXPWINDi_r2_v1.2.,2014-12-27 14:30:00,
2014-12-27 09:36:00,43.7,38.8,30.18,South,182,10.0,12.0,83,0.00,,,0.00,56,HR-IXPWINDi_r2_v1.2.,2014-12-27 14:36:00,
2014-12-27 09:41:00,43.8,38.9,30.17,SSW,211,7.0,12.0,83,0.00,,,0.00,121,HR-IXPWINDi_r2_v1.2.,2014-12-27 14:41:00,
2014-12-27 09:46:00,44.0,39.1,30.17,SSW,207,13.0,14.0,83,0.00,,,0.00,155,HR-IXPWINDi_r2_v1.2.,2014-12-27 14:46:00,
2014-12-27 09:51:00,44.5,39.6,30.17,SSW,194,10.0,14.0,83,0.00,,,0.00,114,HR-IXPWINDi_r2_v1.2.,2014-12-27 14:51:00,
2014-12-27 09:56:00,44.9,39.7,30.17,South,187,14.0,15.0,82,0.00,,,0.00,176,HR-IXPWINDi_r2_v1.2.,2014-12-27 14:56:00,
2014-12-27 10:01:00,45.5,40.0,30.16,SSW,198,13.0,15.0,81,0.00,,,0.00,195,HR-IXPWINDi_r2_v1.2.,2014-12-27 15:01:00,
2014-12-27 10:06:00,45.8,40.3,30.17,SW,215,12.0,15.0,81,0.00,,,0.00,169,HR-IXPWINDi_r2_v1.2.,2014-12-27 15:06:00,
2014-12-27 10:12:00,45.9,40.4,30.17,SSW,206,11.0,15.0,81,0.00,,,0.00,165,HR-IXPWINDi_r2_v1.2.,2014-12-27 15:12:00,
2014-12-27 10:17:00,46.1,40.5,30.17,SSW,211,8.0,14.0,81,0.00,,,0.00,130,HR-IXPWINDi_r2_v1.2.,2014-12-27 15:17:00,
2014-12-27 10:22:00,46.0,40.4,30.18,SW,219,9.0,14.0,81,0.00,,,0.00,253,HR-IXPWINDi_r2_v1.2.,2014-12-27 15:22:00,
2014-12-27 10:27:00,46.4,40.5,30.17,SSW,203,13.0,14.0,80,0.00,,,0.00,283,HR-IXPWINDi_r2_v1.2.,2014-12-27 15:27:00,
2014-12-27 10:32:00,46.7,40.8,30.16,SSW,196,13.0,14.0,80,0.00,,,0.00,241,HR-IXPWINDi_r2_v1.2.,2014-12-27 15:32:00,
2014-12-27 10:38:00,47.0,41.1,30.16,SSW,211,8.0,14.0,80,0.00,,,0.00,272,HR-IXPWINDi_r2_v1.2.,2014-12-27 15:38:00,
2014-12-27 10:43:00,47.3,41.1,30.17,SW,219,12.0,15.0,79,0.00,,,0.00,269,HR-IXPWINDi_r2_v1.2.,2014-12-27 15:43:00,
2014-12-27 10:48:00,47.7,40.5,30.16,SSW,213,9.0,15.0,76,0.00,,,0.00,127,HR-IXPWINDi_r2_v1.2.,2014-12-27 15:48:00,
2014-12-27 10:53:00,47.7,40.8,30.16,SSW,211,8.0,14.0,77,0.00,,,0.00,206,HR-IXPWINDi_r2_v1.2.,2014-12-27 15:53:00,
2014-12-27 10:58:00,47.7,40.8,30.15,SW,214,8.0,15.0,77,0.00,,,0.00,151,HR-IXPWINDi_r2_v1.2.,2014-12-27 15:58:00,
2014-12-27 11:03:00,47.7,40.8,30.15,SSW,202,9.0,15.0,77,0.00,,,0.00,318,HR-IXPWINDi_r2_v1.2.,2014-12-27 16:03:00,
2014-12-27 11:08:00,48.1,41.2,30.16,SSW,210,9.0,14.0,77,0.00,,,0.00,171,HR-IXPWINDi_r2_v1.2.,2014-12-27 16:08:00,
2014-12-27 11:13:00,48.0,41.1,30.15,South,190,9.0,14.0,77,0.00,,,0.00,248,HR-IXPWINDi_r2_v1.2.,2014-12-27 16:13:00,
2014-12-27 11:18:00,48.5,41.9,30.15,SSW,206,8.0,14.0,78,0.00,,,0.00,287,HR-IXPWINDi_r2_v1.2.,2014-12-27 16:18:00,
2014-12-27 11:24:00,48.5,41.6,30.15,SSW,207,12.0,15.0,77,0.00,,,0.00,105,HR-IXPWINDi_r2_v1.2.,2014-12-27 16:24:00,
2014-12-27 11:29:00,48.4,41.8,30.14,SSW,211,8.0,15.0,78,0.00,,,0.00,104,HR-IXPWINDi_r2_v1.2.,2014-12-27 16:29:00,
2014-12-27 11:34:00,48.3,41.4,30.14,SSW,197,11.0,15.0,77,0.00,,,0.00,144,HR-IXPWINDi_r2_v1.2.,2014-12-27 16:34:00,
2014-12-27 11:39:00,48.5,41.9,30.14,SW,219,11.0,16.0,78,0.00,,,0.00,155,HR-IXPWINDi_r2_v1.2.,2014-12-27 16:39:00,
2014-12-27 11:44:00,48.6,42.3,30.14,SW,219,8.0,16.0,79,0.00,,,0.00,156,HR-IXPWINDi_r2_v1.2.,2014-12-27 16:44:00,
2014-12-27 11:49:00,48.6,42.3,30.14,SW,220,13.0,16.0,79,0.00,,,0.00,158,HR-IXPWINDi_r2_v1.2.,2014-12-27 16:49:00,
2014-12-27 11:55:00,48.5,41.9,30.14,SW,219,13.0,17.0,78,0.00,,,0.00,162,HR-IXPWINDi_r2_v1.2.,2014-12-27 16:55:00,
2014-12-27 12:00:00,48.6,42.0,30.13,SW,215,11.0,17.0,78,0.00,,,0.00,230,HR-IXPWINDi_r2_v1.2.,2014-12-27 17:00:00,
2014-12-27 12:05:00,48.8,42.2,30.13,SSW,201,16.0,19.0,78,0.00,,,0.00,225,HR-IXPWINDi_r2_v1.2.,2014-12-27 17:05:00,
2014-12-27 12:10:00,48.9,42.3,30.12,SSW,204,11.0,19.0,78,0.00,,,0.00,279,HR-IXPWINDi_r2_v1.2.,2014-12-27 17:10:00,
2014-12-27 12:15:00,49.3,43.0,30.12,SW,217,12.0,18.0,79,0.00,,,0.00,352,HR-IXPWINDi_r2_v1.2.,2014-12-27 17:15:00,
2014-12-27 12:21:00,49.7,42.7,30.11,SSW,203,13.0,17.0,77,0.00,,,0.00,520,HR-IXPWINDi_r2_v1.2.,2014-12-27 17:21:00,
2014-12-27 12:26:00,49.8,42.5,30.11,SSW,209,14.0,19.0,76,0.00,,,0.00,320,HR-IXPWINDi_r2_v1.2.,2014-12-27 17:26:00,
2014-12-27 12:31:00,50.1,42.8,30.11,SSW,207,10.0,19.0,76,0.00,,,0.00,287,HR-IXPWINDi_r2_v1.2.,2014-12-27 17:31:00,
2014-12-27 12:36:00,50.1,42.4,30.10,SSW,202,14.0,18.0,75,0.00,,,0.00,388,HR-IXPWINDi_r2_v1.2.,2014-12-27 17:36:00,
2014-12-27 12:41:00,50.6,43.3,30.10,SW,224,11.0,17.0,76,0.00,,,0.00,582,HR-IXPWINDi_r2_v1.2.,2014-12-27 17:41:00,
2014-12-27 12:46:00,50.9,43.2,30.09,SW,230,13.0,16.0,75,0.00,,,0.00,294,HR-IXPWINDi_r2_v1.2.,2014-12-27 17:46:00,